This demonstration page uses our WeatherBlox Daily Observations layout. Learn more.

39.92423, -83.80882

Hourly Observations for December 30, 2019

Temp ( °F °C ) Dew Point ( °F °C ) Humidity (%) Winds ( mph kmh ) Pressure ( in mb ) Visibility ( mi km ) Precip ( " mm )
12:56 am 00:56 Mostly Cloudy 53 11.7 53 11.7 100 100 SE 21 33 29.39 995 10 16.0934 0 0
1:07 am 01:07 Mostly Cloudy 54 12 54 12 100 100 SE 21 33 29.39 995 10 16.0934 0 0
1:56 am 01:56 Cloudy with Rain 54 12.2 54 12.2 100 100 SE 21 33 29.38 995 9 14.48406 0.02 0.508
2:56 am 02:56 Cloudy with Light Rain 55 12.8 55 12.8 100 100 S 15 24 29.37 995 10 16.0934 0.001 0.001
3:56 am 03:56 Cloudy with Light Rain 55 12.8 55 12.8 100 100 SSW 22 35 29.36 994 8 12.87472 0.01 0.254
4:32 am 04:32 Cloudy 48 9 46 8 94 94 W 33 54 29.46 997 10 16.0934 0.03 0.762
4:56 am 04:56 Cloudy 48 8.9 45 7.2 89 89 WSW 21 33 29.47 998 10 16.0934 0.03 0.762
5:08 am 05:08 Cloudy 48 9 45 7 87 87 WSW 22 35 29.49 998 10 16.0934 0 0
5:56 am 05:56 Cloudy 48 8.9 45 7.2 89 89 SW 20 31 29.51 999 10 16.0934 0 0
6:56 am 06:56 Cloudy with Light Rain 46 7.8 43 6.1 89 89 WSW 30 48 29.53 1000 7 11.26538 0.03 0.762
7:56 am 07:56 Cloudy 43 6.1 42 5.6 97 97 WSW 16 26 29.58 1002 10 16.0934 0.01 0.254
8:38 am 08:38 Cloudy 43 6 37 3 81 81 W 21 33 29.62 1003 10 16.0934 0 0
9:56 am 09:56 Cloudy 41 5 33 0.6 73 73 WSW 21 33 29.64 1004 10 16.0934 0 0
10:56 am 10:56 Mostly Cloudy 41 5 32 0 70 70 SW 31 50 29.65 1004 10 16.0934 0 0
11:56 am 11:56 Cloudy 40 4.4 32 0 73 73 WSW 28 44 29.65 1004 10 16.0934 0 0
12:56 pm 12:56 Cloudy 39 3.9 33 0.6 79 79 WSW 20 31 29.65 1004 10 16.0934 0 0
1:56 pm 13:56 Cloudy 39 3.9 33 0.6 79 79 WSW 18 30 29.66 1004 10 16.0934 0.001 0.001
2:56 pm 14:56 Cloudy 38 3.3 31 -0.6 76 76 WSW 23 37 29.67 1005 10 16.0934 0 0
3:46 pm 15:46 Cloudy 37 3 30 -1 75 75 WSW 15 24 29.72 1006 10 16.0934 0 0
3:56 pm 15:56 Cloudy 37 2.8 30 -1.1 76 76 W 20 31 29.7 1006 10 16.0934 0 0
4:24 pm 16:24 Cloudy 37 3 30 -1 75 75 WSW 18 30 29.74 1007 10 16.0934 0 0
4:56 pm 16:56 Cloudy 37 2.8 29 -1.7 73 73 WSW 23 37 29.72 1007 10 16.0934 0 0
5:56 pm 17:56 Cloudy 36 2.2 30 -1.1 79 79 WSW 13 20 29.74 1007 10 16.0934 0 0
6:56 pm 18:56 Cloudy 36 2.2 31 -0.6 82 82 WSW 13 20 29.75 1007 10 16.0934 0.001 0.001
7:56 pm 19:56 Cloudy with Light Rain 35 1.7 34 1.1 96 96 SW 13 20 29.75 1008 10 16.0934 0.001 0.001
8:56 pm 20:56 Cloudy 35 1.7 32 0 89 89 WSW 16 26 29.75 1007 10 16.0934 0 0
9:23 pm 21:23 Cloudy 36 2 32 0 87 87 SW 15 24 29.75 1008 10 16.0934 0 0
9:56 pm 21:56 Cloudy with Light Rain 36 2.2 31 -0.6 82 82 WSW 14 22 29.73 1007 10 16.0934 0.001 0.001
10:56 pm 22:56 Cloudy 37 2.8 29 -1.7 73 73 SW 24 39 29.72 1006 10 16.0934 0 0
11:56 pm 23:56 Cloudy 36 2.2 29 -1.7 76 76 SW 21 33 29.71 1006 10 16.0934 0 0

Powered by AerisWeather